Miscellaneous Local Product
Issued by NWS Hastings, NE

Home | Current Version | Previous Version | Text Only | Print | Product List | Glossary Off
Versions: 1 2 3 4 5 6 7 8 9 10 11 12 13 14 15 16 17 18 19 20 21 22 23 24 25 26 27 28 29 30 31 32 33 34 35 36 37 38 39 40 41 42 43 44 45 46 47 48 49 50

000
AXUS43 KGID 310902
MISGRI

GID CWA HOURLY WEATHER ROUNDUP
NATIONAL WEATHER SERVICE HASTINGS NE
400 AM CDT TUE MAY 31 2016

NOTE: "FAIR" INDICATES FEW OR NO CLOUDS BELOW 12,000 FEET WITH NO
SIGNIFICANT WEATHER AND/OR OBSTRUCTIONS TO VISIBILITY.

...SOUTH CENTRAL NEBRASKA...

CITY           SKY/WX    TMP DP  RH WIND       PRES   REMARKS
GRAND ISLAND   CLOUDY    61  59  93 NW3       29.92R
HASTINGS       CLOUDY    58  57  97 MISG      29.92F
KEARNEY        CLOUDY    59  55  88 NW7       29.94S
ORD            CLOUDY    60  54  80 N12       29.93R
YORK           LGT RAIN  61  59  94 NW5       29.91R
AURORA         CLOUDY    62  60  95 E6        29.92R
LEXINGTON      CLOUDY    57  54  88 N5        29.97S
HOLDREGE       CLOUDY    58  55  89 NW7       29.94F
HEBRON         CLOUDY    60  58  96 CALM      29.88S

...NEBRASKA PANHANDLE...

CITY           SKY/WX    TMP DP  RH WIND       PRES   REMARKS
CHADRON        CLOUDY    50  44  80 W6        30.06S
ALLIANCE       MOCLDY    50  48  93 NW7       30.06F
SCOTTSBLUFF    CLOUDY    50  43  77 W5        30.10F
SIDNEY         CLEAR     49  47  93 N12       30.08R

...WESTERN AND NORTH CENTRAL NEBRASKA...

CITY           SKY/WX    TMP DP  RH WIND       PRES   REMARKS
VALENTINE      CLEAR     50  45  83 W3        30.00R
AINSWORTH      CLOUDY    53  48  84 W7        29.99R
ONEILL         CLOUDY    59  55  85 NW9       29.94R
BROKEN BOW     CLOUDY    57  53  86 N12       29.95R
IMPERIAL       CLOUDY    56  50  80 N15       30.02F
NORTH PLATTE   CLOUDY    53  50  89 NW7       30.00R
MCCOOK         CLOUDY    57  53  86 N12       29.98S

...EASTERN NEBRASKA...

CITY           SKY/WX    TMP DP  RH WIND       PRES   REMARKS
NORFOLK        LGT RAIN  60  58  92 S5        29.91R
SO SIOUX CITY  CLOUDY    62  59  90 SW6       29.86F
TEKAMAH        CLOUDY    64  58  80 N14       29.86S
COLUMBUS       CLOUDY    61  52  72 NW7       29.92R
ALBION         LGT RAIN  60  57  91 NW7       29.91R
OMAHA EPPLEY   CLOUDY    68  61  78 S9        29.86F
MILLARD        CLOUDY    69  62  79 S3        29.85F
LINCOLN        CLOUDY    67  56  67 W5        29.87F
NEBRASKA CITY  CLOUDY    65  62  90 S8        29.89F
BEATRICE       CLOUDY    63  57  80 CALM      29.87F
FALLS CITY     LGT RAIN  65  61  87 SW10      29.90F

...NORTHERN KANSAS...

CITY           SKY/WX    TMP DP  RH WIND       PRES   REMARKS
GOODLAND       CLEAR     50  47  89 CALM      29.99R
HILL CITY      CLOUDY    60  57  89 N3        29.94R
NORTON         SUNNY     57  52  82 NW5       29.96R
PHILLIPSBURG   CLEAR     59  59 100 N5        29.95R
SMITH CENTER   CLOUDY    57  57 100 SE8       29.94R
BELOIT         CLEAR     55  54  94 S8        29.91S
HAYS           CLOUDY    61  52  72 NE12      29.89S
RUSSELL        CLOUDY    59  57  93 E6        29.89F
CONCORDIA      CLOUDY    60  58  92 MISG      29.90S
SALINA         RAIN      62  61  96 S9        29.94F
TOPEKA         CLOUDY    63  60  90 CALM      29.93F



USA.gov is the U.S. government's official web portal to all federal, state and local government web resources and services.